Regional Weather Roundup
Issued by NWS Charleston, SC

Home | Current Version | Previous Version | Text Only | Print | Product List | Glossary On
Versions: 1 2 3 4 5 6 7 8 9 10 11 12 13 14 15 16 17 18 19 20 21 22 23 24 25 26 27 28 29 30 31 32 33 34 35 36 37 38 39 40 41 42 43 44 45 46 47 48 49 50
000
ASUS42 KCHS 141027
RWRCHS

REGIONAL WEATHER ROUNDUP
NATIONAL WEATHER SERVICE CHARLESTON SC
500 AM EST THU DEC 14 2017

NOTE: "FAIR" INDICATES FEW OR NO CLOUDS BELOW 12,000 FEET WITH NO
SIGNIFICANT WEATHER AND/OR OBSTRUCTIONS TO VISIBILITY.

NOT ALL STATIONS ARE QUALITY CONTROLLED. USE DATA WITH CAUTION...
ESPECIALLY DEWPOINT OBSERVATIONS.

SCZ027-030-031-034>040-042>050-141100-
...SOUTHEAST SOUTH CAROLINA...

CITY           SKY/WX    TMP DP  RH WIND       PRES   REMARKS
N CHARLESTON   CLEAR     43  27  53 SW10      29.88S
WATERFRONT PRK   N/A     46  29  51 SW7       29.74F
JOHNS ISLAND   FAIR      45  30  57 SW8       29.89S
PINOPOLIS        N/A     45  30  57 SW15      29.78F
MONCKS CORNER  FAIR      41  23  48 SW7       29.87R
SUMMERVILLE    FAIR      41  28  60 SW7       29.88S
BEAUFORT MCAS  CLEAR     42  32  67 SW10      29.91F
BEAUFORT ARPT  FAIR      43  32  65 SW10G18   29.91S
HILTON HEAD IS NOT AVBL
WALTERBORO     SUNNY     39  28  65 SW7       29.89S WCI  34
ALLENDALE      FAIR      39  27  60 CALM      29.87S

...SOUTHERN MIDLANDS AND PEE DEE...

CITY           SKY/WX    TMP DP  RH WIND       PRES   REMARKS
GEORGETOWN     FAIR      41  27  56 SW12      29.86R
KINGSTREE      FAIR      41  23  48 SW8       29.83S
ORANGEBURG     CLEAR     35  25  66 SW8       29.84S WCI  29
BARNWELL         N/A     45  30  57 SW8       29.86R
AIKEN          FAIR      34  25  69 CALM      29.85S
MANNING        FAIR      41  25  52 MISG      29.84R
COLUMBIA       CLEAR     39  24  55 SW6       29.81S WCI  35
SUMTER         CLEAR     42  21  44 SW16      29.77S
FLORENCE       CLEAR     40  23  50 SW10      29.80R WCI  33
MYRTLE BEACH   CLEAR     44  24  45 W9        29.83S
N MYRTLE BEACH CLEAR     46  24  42 SW12G21   29.80S

$$

GAZ063-065-086>088-099>101-113>116-118-119-134>141-150-141100-
...SOUTHEAST GEORGIA...

CITY           SKY/WX    TMP DP  RH WIND       PRES   REMARKS
SAVANNAH ARPT  CLEAR     40  33  76 SW8       29.93F WCI  34
HUNTER AAF     CLEAR     42  34  74 SW8       29.92F
FORT STEWART   CLEAR     40  35  82 SW5       29.92F WCI  36
STATESBORO     CLEAR     42  30  62 SW6       29.91S
SYLVANIA       SUNNY     43  32  65 W5        29.90S
CLAXTON        FAIR      33  32  94 CALM      29.92S

...CSRA...CENTRAL AND FAR SOUTHEAST GEORGIA...

CITY           SKY/WX    TMP DP  RH WIND       PRES   REMARKS
THOMSON        CLEAR     40  27  60 NW8       29.89S WCI  34
AUGUSTA-BUSH   CLEAR     41  26  55 SW9       29.84F
AUGUSTA-DANIEL CLEAR     43  26  51 VRB5      29.84F
SWAINSBORO     FAIR      39  32  75 NW3       29.91R
VIDALIA        CLEAR     39  36  87 SW8       29.92S WCI  34
EASTMAN        FAIR      41  27  58 W3        29.95S
HAZLEHURST     FAIR      44  31  59 SW6       29.92F
ALMA           CLOUDY    36  33  89 CALM      29.95F
WAYCROSS       CLOUDY    38  36  91 SW5       29.96S WCI  35
JESUP          NOT AVBL
BAXLEY         FAIR      36  36 100 CALM      29.94S
BRUNSWICK      MOCLDY    37  34  87 SW5       29.97F WCI  34
SAINT SIMONS   PTCLDY    43  37  79 SW7       29.96F

$$

SCZ027-028-034-036>038-045-046-048>050-GAZ119-141-141100-
...LAKE AND SUPPLEMENTAL COASTAL OBSERVATIONS...

STATION/POSITION TIME  TEMP    WIND        PRES    WAVE   SWELL
                       AIR SEA DIR/SP/G            HT/PER HT/PER/DIR
                 (UTC) (F)     (DEG/KT/KT) (MB)    (FT/S) (FT/S/D)
WINYAH BAY       0945   45     240/  9     1010.0F
LAKE MURRAY      0930   45     250/ 14/ 21 1008.1S
ACE BASIN NERRS  0945   44     230/  4     1013.0S
FORT PULASKI     1000   45 53  260/  9/ 13 1013.4
SAPELO ISLAND    1000   45     240/  7     1014.0

$$

ANZ835-935-AMZ111-154-330-350-352-354-370-450-454-472-141100-
...C-MAN AND BUOY OBSERVATIONS...

STATION/POSITION TIME  TEMP    WIND        PRES    WAVE   SWELL
                       AIR SEA DIR/SP/G            HT/PER HT/PER/DIR
                 (UTC) (F)     (DEG/KT/KT) (MB)    (FT/S) (FT/S/D)
BUOY 41004       1010      73  260/ 27/ 35 1011.5
BUOY 41008       0950   53 58  240/ 19/ 21 1013.7F   4/ 5
FOLLY BEACH CMAN 1000   46     240/  9/ 13 1012.4F
CAPERS NEARSHORE 0908   48 56  260/ 21/ 29 1011.0F
FRIPP NEARSHORE  0908   47 56  240/ 25/ 37 1012.6F


STATION/POSITION TIME  TEMP    WIND        PRES    WAVE   SWELL
                       AIR SEA DIR/SP/G            HT/PER HT/PER/DIR
                 (UTC) (F)     (DEG/KT/KT) (MB)    (FT/S) (FT/S/D)
5E ST. MARYS GA  1000      62                N/A     2/ 3
FRYING PAN BUOY  1010   58 66  250/ 29/ 37 1009.5
BUOY 41025       1010   57 74  250/ 31/ 41 1007.0
CAPE LOOKOUT NC  1000          260/ 26/ 34 1007.9F
BUOY 41002       0950   66 74  250/ 23/ 27 1011.3F   8/ 6
BUOY 41010       NOT AVBL
ST AUGUSTINE FL  1000   48 62  220/  7/  9 1015.7F


$$




USA.gov is the U.S. government's official web portal to all federal, state and local government web resources and services.